Nantucket, MA

4:31 PM EDT on May 25, 2017 (GMT -0400)
Nantucket Memorial

Weather History for KACK - February, 2013

Change the Weather History Date:

Sunday, February 24, 2013

  Actual Average Record
Temperature  
Mean Temperature 40 °F -  
Max Temperature 46 °F 40 °F 53 °F (2016)
Min Temperature 33 °F 27 °F 8 °F (2015)
Degree Days  
Heating Degree Days 26    
Moisture  
Dew Point 40 °F    
Average Humidity 93    
Maximum Humidity 100    
Minimum Humidity 87    
Precipitation  
Precipitation 1.35 in - - ()
Sea Level Pressure  
Sea Level Pressure 29.64 in    
Wind  
Wind Speed 20 mph (NNE)    
Max Wind Speed 28 mph    
Max Gust Speed 44 mph    
Visibility 4 miles    
Events Rain , Snow    
Averages and records for this station are not official NWS values.
T = Trace of Precipitation, MM = Missing Value Source: NWS Daily Summary

Daily Weather History Graph

Daily Weather History Graph

Search for Another Location

Airport or City:

Trip Planner

Search our weather history database for the weather conditions in past years. The results will help you decide how hot, cold, wet, or windy it might be!

Date:

Astronomy

Feb. 24, 2013 Rise Set
Actual Time 6:21 AM EST 5:25 PM EST
Civil Twilight 5:54 AM EST 5:53 PM EST
Nautical Twilight 5:22 AM EST 6:25 PM EST
Astronomical Twilight 4:50 AM EST 6:57 PM EST
Moon 4:33 PM EST (2/24) 5:17 AM EST (2/24)
Length of Visible Light 11h 59m
Length of Day
11h 03m
Waxing Gibbous, 99% of the Moon is Illuminated
Feb 24
Waxing Gibbous
Feb 25
Full
Mar 4
Last Quarter
Mar 11
New
Mar 19
First Quarter

Hourly Weather History & Observations

Time (EST) Temp. Windchill Dew Point Humidity Pressure Visibility Wind Dir Wind Speed Gust Speed Precip Events Conditions
12:53 AM 43.0 °F 35.1 °F 41.0 °F 93% 29.79 in 4.0 mi East 17.3 mph - 0.15 in Rain Rain
1:53 AM 43.0 °F 34.8 °F 42.1 °F 97% 29.76 in 5.0 mi East 18.4 mph 29.9 mph 0.17 in Rain Rain
2:45 AM 44.6 °F 36.1 °F 42.8 °F 93% 29.70 in 4.0 mi East 21.9 mph 27.6 mph 0.08 in Rain Light Rain
2:53 AM 44.1 °F 35.7 °F 42.1 °F 93% 29.69 in 6.0 mi East 20.7 mph 31.1 mph 0.09 in Rain Light Rain
3:43 AM 44.6 °F 36.1 °F 42.8 °F 93% 29.65 in 3.0 mi East 21.9 mph 36.8 mph 0.03 in Rain Light Rain
3:53 AM 45.0 °F 36.6 °F 43.0 °F 93% 29.65 in 3.0 mi East 21.9 mph 34.5 mph 0.05 in Rain Rain
4:05 AM 44.6 °F 35.9 °F 42.8 °F 93% 29.64 in 2.5 mi East 23.0 mph 34.5 mph 0.01 in Rain Light Rain
4:08 AM 44.6 °F 35.5 °F 42.8 °F 93% 29.64 in 3.0 mi East 25.3 mph 33.4 mph 0.01 in Rain Light Rain
4:40 AM 44.6 °F 36.1 °F 42.8 °F 93% 29.64 in 2.5 mi East 21.9 mph 31.1 mph 0.03 in Rain Rain
4:53 AM 45.0 °F 36.9 °F 43.0 °F 93% 29.63 in 2.5 mi East 20.7 mph 33.4 mph 0.05 in Rain Rain
5:53 AM 45.0 °F 37.1 °F 43.0 °F 93% 29.61 in 2.5 mi ENE 19.6 mph 29.9 mph 0.11 in Rain Light Rain
6:22 AM 44.6 °F 36.4 °F 42.8 °F 93% 29.60 in 1.8 mi ENE 20.7 mph 28.8 mph 0.09 in Rain Heavy Rain
6:32 AM 44.6 °F 36.4 °F 42.8 °F 93% 29.60 in 2.0 mi ENE 20.7 mph - 0.11 in Rain Rain
6:44 AM 44.6 °F 37.4 °F 42.8 °F 93% 29.59 in 1.2 mi ENE 16.1 mph 27.6 mph 0.12 in Rain Rain
7:53 AM 44.1 °F 35.7 °F 43.0 °F 96% 29.60 in 0.8 mi NE 20.7 mph 26.5 mph 0.25 in Rain Heavy Rain
8:53 AM 45.0 °F 36.6 °F 43.0 °F 93% 29.59 in 1.5 mi NNE 21.9 mph 31.1 mph 0.19 in Rain Light Rain
9:01 AM 44.6 °F 36.9 °F 42.8 °F 93% 29.59 in 1.5 mi NNE 18.4 mph 31.1 mph 0.01 in Rain Light Rain
9:53 AM 45.0 °F 36.9 °F 43.0 °F 93% 29.55 in 3.0 mi NE 20.7 mph 29.9 mph 0.04 in Rain Light Rain
10:53 AM 45.0 °F 36.9 °F 43.0 °F 93% 29.53 in 3.0 mi NE 20.7 mph 31.1 mph 0.00 in Rain Light Rain
11:53 AM 46.0 °F 38.5 °F 44.1 °F 93% 29.50 in 6.0 mi NE 19.6 mph 26.5 mph 0.01 in Rain Light Rain
12:53 PM 46.0 °F 40.6 °F 44.1 °F 93% 29.49 in 2.0 mi NNE 11.5 mph 25.3 mph 0.01 in Rain Light Rain
1:04 PM 46.4 °F 39.0 °F 44.6 °F 93% 29.50 in 1.8 mi NNE 19.6 mph 26.5 mph 0.00 in Rain Light Rain
1:12 PM 46.4 °F 40.1 °F 44.6 °F 93% 29.50 in 2.5 mi North 15.0 mph 26.5 mph 0.00 in Rain Light Rain
1:22 PM 44.6 °F 36.9 °F 42.8 °F 93% 29.51 in 2.0 mi NNW 18.4 mph - 0.01 in   Overcast
1:29 PM 42.8 °F 34.3 °F 41.0 °F 93% 29.51 in 1.5 mi North 19.6 mph 28.8 mph 0.02 in   Overcast
1:53 PM 43.0 °F 33.8 °F 41.0 °F 93% 29.52 in 1.5 mi North 23.0 mph 29.9 mph 0.03 in   Overcast
2:09 PM 42.8 °F 33.8 °F 41.0 °F 93% 29.53 in 2.5 mi North 21.9 mph 26.5 mph 0.00 in Rain Light Rain
2:22 PM 42.8 °F 33.1 °F 39.2 °F 87% 29.53 in 3.0 mi North 25.3 mph 36.8 mph 0.01 in Rain Light Rain
2:53 PM 42.1 °F 32.6 °F 39.0 °F 89% 29.54 in 4.0 mi North 23.0 mph 32.2 mph 0.04 in Rain Light Rain
3:20 PM 41.0 °F 30.5 °F 39.2 °F 93% 29.54 in 7.0 mi North 26.5 mph 39.1 mph 0.01 in Rain Light Rain
3:41 PM 41.0 °F 30.2 °F 39.2 °F 93% 29.57 in 10.0 mi North 27.6 mph 36.8 mph 0.01 in   Overcast
3:53 PM 41.0 °F 30.2 °F 37.9 °F 89% 29.58 in 9.0 mi North 27.6 mph 43.7 mph 0.02 in   Overcast
4:53 PM 37.9 °F 27.3 °F 36.0 °F 93% 29.61 in 7.0 mi North 21.9 mph 29.9 mph 0.00 in Rain Light Rain
5:53 PM 37.9 °F 27.9 °F 36.0 °F 93% 29.65 in 10.0 mi North 19.6 mph - 0.00 in   Overcast
6:53 PM 37.9 °F 28.5 °F 36.0 °F 93% 29.68 in 3.0 mi North 17.3 mph 25.3 mph 0.00 in Rain Light Rain
7:17 PM 37.4 °F 28.5 °F 35.6 °F 93% 29.70 in 5.0 mi North 15.0 mph - 0.01 in Rain , Snow Light Rain
7:25 PM 37.4 °F 28.2 °F 35.6 °F 93% 29.70 in 6.0 mi North 16.1 mph - 0.02 in Rain , Snow Light Rain
7:53 PM 37.0 °F 27.0 °F 35.1 °F 93% 29.72 in 5.0 mi North 18.4 mph - 0.03 in Rain , Snow Light Rain
8:35 PM 33.8 °F 24.3 °F 33.8 °F 100% 29.74 in 2.5 mi NNW 13.8 mph - 0.04 in Snow Light Snow
8:53 PM 34.0 °F 25.0 °F 33.1 °F 96% 29.75 in 2.5 mi NNW 12.7 mph - 0.05 in Snow Light Snow
9:08 PM 33.8 °F 23.5 °F 33.8 °F 100% 29.75 in 3.0 mi NNW 16.1 mph - 0.00 in Snow Light Snow
9:53 PM 35.1 °F 25.5 °F 33.1 °F 92% 29.77 in 4.0 mi NNW 15.0 mph - 0.02 in Snow Light Snow
10:53 PM 34.0 °F 24.6 °F 33.1 °F 96% 29.79 in 3.0 mi NNW 13.8 mph - 0.02 in Snow Light Snow
11:00 PM 33.8 °F 24.3 °F 33.8 °F 100% 29.79 in 2.5 mi NNW 13.8 mph - 0.00 in Snow Light Snow
11:32 PM 35.6 °F 25.9 °F 33.8 °F 93% 29.80 in 4.0 mi NNW 16.1 mph 24.2 mph 0.01 in Snow Light Snow
11:39 PM 35.6 °F 25.2 °F 33.8 °F 93% 29.80 in 5.0 mi NNW 18.4 mph 26.5 mph 0.01 in Snow Light Snow
11:53 PM 35.1 °F 24.5 °F 33.1 °F 92% 29.81 in 4.0 mi NNW 18.4 mph 26.5 mph 0.02 in Snow Light Snow